User: anonymous   Login
Location: Unspecified
(0.0000°N, 0.0000°E)
Time: 09:28:17
(UTC+00:00)
Language:

LO-87 - Orbit

View from above orbital plane
View from above orbital plane
View from above satellite
View from above satellite

Ground track
Ground track

The orbit data is extracted from the following two-line orbital elements,

1 41557U 16033B   19345.81756343  .00000962  00000-0  38325-4 0  9996
2 41557  97.4128  72.2761 0014661  41.0901 319.1439 15.27590527196978
Epoch (UTC): 11 December 2019 19:37:17
Eccentricity: 0.0014661
inclination: 97.4128°
perigee height: 473 km
apogee height: 493 km
right ascension of ascending node: 72.2761°
argument of perigee: 41.0901°
revolutions per day: 15.27590527
mean anomaly at epoch: 319.1439°
orbit number at epoch: 19697

The dashed part of the orbit path shows where the satellite is in the earth's shadow,  

DLR